[[{"header":{"parameterUnit":"m.s-1","parameterCategory":1,"la1":30.2991,"la2":30.254,"lo1":-89.0895,"lo2":-89.0444,"dy":0.0017,"dx":0.0017,"nx":28,"ny":28,"refTime":"2024-07-02T09:00:00:Z","depth":0,"parameterNumber":2,"parameterNumberName":"U-component_of_WINDS"},"data":[0,0,0,0,0,0,0,0,0,0,0,0,0,0,0,0,0,0,0,0,0,0,0,0,0,0,0,0,0,0,0,0,0,0,0,0,0,0,0,0,0,0,0,0,0,0,0,0,0,0,0,0,0,0,0,0,0,0,-0.1012,-0.101,0,-0.0873,-0.0871,-0.087,-0.0793,-0.0793,-0.0793,-0.0792,-0.065,-0.0647,-0.0643,0,0,0,0,0,0,0,0,0,0,0,0,0,-0.1211,-0.1208,-0.1012,-0.101,-0.1008,-0.0873,-0.0871,-0.0869,-0.0793,-0.0793,-0.0792,-0.0792,-0.0651,-0.0647,-0.0643,0,0,0,0,0,0,0,0,0,0,0,0,0,-0.1104,-0.1207,-0.1012,-0.0954,-0.0947,-0.0874,-0.0871,-0.0869,-0.0793,-0.0793,-0.0792,-0.0792,-0.0653,-0.0648,-0.0642,-0.0616,0,0,-0.0626,-0.0624,0,0,0,0,0,0,0,0,-0.111,-0.1096,-0.0964,-0.0958,-0.095,-0.085,-0.0889,-0.0784,-0.0793,-0.0852,-0.0792,-0.0792,-0.0717,-0.0706,-0.0681,-0.0609,-0.0603,-0.0626,-0.0622,-0.062,-0.0618,0,0,0,0,0,0,0,-0.1117,-0.1102,-0.0957,-0.0962,-0.0954,-0.0935,-0.0919,-0.0869,-0.0788,-0.0846,-0.0841,-0.0825,-0.0713,-0.0686,-0.0677,-0.0601,-0.0626,-0.0621,-0.0618,-0.0616,-0.0502,-0.0502,0,0,0,0,0,0,-0.1134,-0.1109,-0.0961,-0.0953,-0.1031,-0.0932,-0.0914,-0.0882,-0.0788,-0.0774,-0.0826,-0.0822,-0.0696,-0.0684,-0.0672,-0.0635,-0.062,-0.0615,-0.0612,-0.0501,-0.0502,-0.0502,0,0,0,0,0,0,-0.1139,-0.1122,-0.0967,-0.1029,-0.1008,-0.0928,-0.0894,-0.088,-0.0853,-0.0772,-0.0758,-0.0813,-0.0695,-0.0679,-0.0631,-0.0629,-0.0613,-0.0608,-0.0501,-0.0502,-0.0502,-0.0562,0,0,0,0,0,0,-0.1145,-0.1124,-0.1113,-0.1029,-0.1005,-0.0928,-0.0893,-0.0877,-0.0844,-0.0838,-0.0757,-0.0743,-0.0694,-0.0639,-0.0625,-0.0622,-0.0604,-0.0501,-0.0501,-0.0502,-0.056,-0.0564,-0.0568,0,0,0,0,0,-0.1152,-0.1135,-0.1113,-0.1095,-0.0989,-0.0928,-0.0914,-0.0857,-0.0844,-0.0833,-0.0781,-0.0746,-0.0632,-0.0635,-0.0619,-0.0613,-0.0501,-0.0501,-0.0502,-0.0558,-0.0563,-0.0568,0,0,0,0,0,0,-0.122,-0.1123,-0.1097,-0.1052,-0.0999,-0.0915,-0.0899,-0.0865,-0.0814,-0.0811,-0.0742,-0.0725,-0.0683,-0.0643,-0.0648,-0.0583,-0.0563,-0.056,-0.0611,-0.0615,-0.0619,-0.063,-0.0599,0,0,0,0,0,-0.123,-0.1188,-0.1106,-0.1074,-0.1049,-0.0979,-0.095,-0.0911,-0.0853,-0.083,-0.0774,-0.072,-0.0671,-0.0641,-0.0592,-0.0554,-0.0535,-0.0542,-0.0546,-0.055,-0.0549,-0.0526,-0.0528,-0.0503,-0.0503,-0.0503,0,0,-0.125,-0.1192,-0.117,-0.1087,-0.1041,-0.0999,-0.096,-0.0918,-0.0886,-0.0823,-0.0774,-0.0732,-0.0666,-0.0623,-0.0601,-0.0588,-0.0551,-0.0551,-0.0554,-0.055,-0.0526,-0.0529,-0.0531,-0.0504,-0.0504,-0.0503,0,0,-0.1266,-0.1217,-0.1186,-0.1141,-0.1072,-0.1025,-0.1018,-0.0939,-0.0909,-0.0858,-0.081,-0.0772,-0.069,-0.0645,-0.0612,-0.0611,-0.0577,-0.0597,-0.0619,-0.0598,-0.06,-0.0601,-0.0602,-0.0603,-0.0596,-0.0596,-0.0596,0,-0.1299,-0.1235,-0.1174,-0.1135,-0.11,-0.1041,-0.1009,-0.0968,-0.0887,-0.0865,-0.0852,-0.0749,-0.07,-0.0646,-0.0646,-0.062,-0.061,-0.0606,-0.0605,-0.0605,-0.0606,-0.0605,-0.0606,-0.0599,-0.0599,-0.0599,-0.0598,0,-0.128,-0.1236,-0.1219,-0.1142,-0.1105,-0.107,-0.1004,-0.0974,-0.0939,-0.0894,-0.0844,-0.0784,-0.0722,-0.0706,-0.0671,-0.0647,-0.0641,-0.0618,-0.0595,-0.0612,-0.0611,-0.061,-0.0603,-0.0602,-0.0601,-0.0601,0,0,-0.1334,-0.1225,-0.1219,-0.1184,-0.1104,-0.1069,-0.1031,-0.0971,-0.0947,-0.0893,-0.086,-0.0792,-0.077,-0.0732,-0.0691,-0.0673,-0.0677,-0.0651,-0.0648,-0.0658,-0.0647,-0.0666,-0.0667,-0.0654,-0.0653,-0.0653,-0.0653,0,-0.1338,-0.1267,-0.1212,-0.1162,-0.1121,-0.1065,-0.1032,-0.098,-0.0937,-0.0896,-0.0848,-0.0802,-0.0776,-0.0753,-0.0732,-0.0681,-0.0674,-0.068,-0.0623,-0.0621,-0.0641,-0.0666,-0.0685,-0.0688,-0.0652,-0.0652,-0.0652,0,-0.1333,-0.1282,-0.1228,-0.1152,-0.1133,-0.1104,-0.1045,-0.1006,-0.0946,-0.0916,-0.0875,-0.0832,-0.0791,-0.0773,-0.0714,-0.072,-0.0693,-0.0665,-0.0663,-0.0656,-0.0638,-0.066,-0.0687,-0.0688,-0.065,-0.065,-0.065,0,-0.138,-0.1296,-0.1253,-0.1225,-0.1135,-0.1117,-0.1079,-0.1018,-0.0985,-0.0933,-0.0912,-0.0856,-0.0826,-0.0783,-0.0728,-0.072,-0.0675,-0.0652,-0.065,-0.0651,-0.0643,-0.0644,-0.0668,-0.0625,-0.0625,-0.0625,-0.0625,0,-0.139,-0.1359,-0.1273,-0.1246,-0.121,-0.1148,-0.1114,-0.1071,-0.1018,-0.0982,-0.093,-0.0899,-0.0826,-0.0786,-0.0742,-0.0701,-0.0687,-0.0662,-0.0651,-0.0667,-0.067,-0.0649,-0.0647,-0.0625,-0.0625,-0.0625,-0.0625,0,-0.1435,-0.1376,-0.1325,-0.1245,-0.1224,-0.1201,-0.1133,-0.1105,-0.106,-0.1016,-0.1002,-0.0931,-0.088,-0.082,-0.0751,-0.0721,-0.0684,-0.0667,-0.0705,-0.0698,-0.0699,-0.07,-0.0709,-0.0708,-0.0667,-0.0668,-0.0668,0,-0.1446,-0.1421,-0.1338,-0.1311,-0.1274,-0.1231,-0.1197,-0.1135,-0.1102,-0.1032,-0.1013,-0.0959,-0.0912,-0.0835,-0.0777,-0.0723,-0.0705,-0.0712,-0.0696,-0.0714,-0.0706,-0.0708,-0.0705,-0.0716,-0.0717,-0.0718,-0.0718,0,-0.1472,-0.1444,-0.1398,-0.1341,-0.1303,-0.1256,-0.1206,-0.1187,-0.1114,-0.108,-0.1028,-0.0992,-0.0921,-0.0868,-0.0807,-0.0768,-0.0732,-0.0723,-0.072,-0.0736,-0.0759,-0.0748,-0.0716,-0.0723,-0.0723,-0.0722,-0.0722,-0.0722,-0.1501,-0.1476,-0.1414,-0.1364,-0.1321,-0.1276,-0.1246,-0.1197,-0.1152,-0.1089,-0.1055,-0.1004,-0.0945,-0.086,-0.0822,-0.0782,-0.0769,-0.0764,-0.0762,-0.0762,-0.0767,-0.0766,-0.077,-0.077,-0.077,-0.077,-0.0769,0,-0.1525,-0.1482,-0.1437,-0.1369,-0.133,-0.1298,-0.1242,-0.1212,-0.1168,-0.1115,-0.107,-0.1011,-0.096,-0.0898,-0.0843,-0.0822,-0.0804,-0.081,-0.0811,-0.0803,-0.0782,-0.0791,-0.0825,-0.0825,-0.0825,-0.0825,-0.0825,-0.0825,-0.1533,-0.149,-0.1454,-0.1389,-0.1346,-0.1296,-0.1267,-0.1225,-0.1183,-0.1119,-0.1076,-0.1036,-0.098,-0.092,-0.0872,-0.0855,-0.0837,-0.0849,-0.0827,-0.0809,-0.0804,-0.0799,-0.0807,-0.0845,-0.0845,-0.0851,-0.0851,-0.0851]},{"header":{"parameterUnit":"m.s-1","parameterCategory":1,"la1":30.2991,"la2":30.254,"lo1":-89.0895,"lo2":-89.0444,"dy":0.0017,"dx":0.0017,"nx":28,"ny":28,"refTime":"2024-07-02T09:00:00:Z","depth":0,"parameterNumber":3,"parameterNumberName":"V-component_of_WINDS"},"data":[0,0,0,0,0,0,0,0,0,0,0,0,0,0,0,0,0,0,0,0,0,0,0,0,0,0,0,0,0,0,0,0,0,0,0,0,0,0,0,0,0,0,0,0,0,0,0,0,0,0,0,0,0,0,0,0,0,0,4.7092,4.7091,0,4.7061,4.706,4.706,4.7031,4.7031,4.703,4.703,4.6995,4.6994,4.6994,0,0,0,0,0,0,0,0,0,0,0,0,0,4.7124,4.7123,4.7092,4.7091,4.7091,4.7061,4.706,4.706,4.7031,4.7031,4.703,4.703,4.6995,4.6994,4.6994,0,0,0,0,0,0,0,0,0,0,0,0,0,4.7103,4.7123,4.7092,4.7073,4.7071,4.7061,4.706,4.706,4.7031,4.7031,4.703,4.703,4.6995,4.6994,4.6993,4.6998,0,0,4.6991,4.699,0,0,0,0,0,0,0,0,4.7104,4.7102,4.7076,4.7074,4.7072,4.7049,4.7059,4.7039,4.7031,4.7046,4.703,4.7029,4.7013,4.7011,4.7006,4.6997,4.6995,4.6991,4.699,4.699,4.6989,0,0,0,0,0,0,0,4.7106,4.7103,4.7079,4.7076,4.7073,4.7065,4.7062,4.7055,4.7033,4.7045,4.7043,4.704,4.7012,4.7007,4.7005,4.6995,4.6991,4.699,4.6989,4.6989,4.6988,4.6989,0,0,0,0,0,0,4.711,4.7104,4.708,4.7078,4.7087,4.7065,4.7061,4.7057,4.7033,4.7029,4.704,4.7038,4.7009,4.7006,4.7003,4.7008,4.699,4.6989,4.6988,4.6988,4.6988,4.6989,0,0,0,0,0,0,4.7111,4.7108,4.7081,4.7091,4.7087,4.7065,4.7061,4.7057,4.7052,4.7029,4.7025,4.7039,4.7008,4.7005,4.7,4.7006,4.6988,4.6987,4.6987,4.6988,4.6989,4.7017,0,0,0,0,0,0,4.7112,4.7109,4.7111,4.7091,4.7086,4.7079,4.7061,4.7056,4.7051,4.7048,4.7027,4.7023,4.7007,4.7002,4.6999,4.7005,4.6987,4.6986,4.6987,4.6988,4.7015,4.7019,4.7021,0,0,0,0,0,4.7113,4.7119,4.7111,4.7108,4.7089,4.708,4.7077,4.706,4.7051,4.7053,4.7039,4.7024,4.7006,4.7001,4.6998,4.7004,4.6986,4.6987,4.6988,4.7014,4.7018,4.7021,0,0,0,0,0,0,4.7139,4.7116,4.7107,4.7107,4.7096,4.7075,4.7077,4.7064,4.7055,4.7052,4.703,4.7026,4.7024,4.7013,4.7008,4.7007,4.6994,4.6995,4.7015,4.7018,4.7021,4.7024,4.6986,0,0,0,0,0,4.7145,4.7141,4.7121,4.7122,4.7117,4.7098,4.7094,4.7081,4.7068,4.7063,4.7048,4.7036,4.7027,4.7022,4.7013,4.7014,4.7009,4.7016,4.7019,4.7021,4.7022,4.7022,4.7025,4.6993,4.6993,4.6993,0,0,4.7157,4.7144,4.7142,4.7127,4.7117,4.7113,4.7094,4.709,4.7086,4.7062,4.7057,4.7046,4.703,4.7029,4.7027,4.702,4.703,4.7023,4.7025,4.7025,4.7024,4.7027,4.703,4.6994,4.6993,4.6993,0,0,4.7176,4.7166,4.7166,4.7157,4.7143,4.713,4.713,4.7112,4.7104,4.7099,4.7081,4.7076,4.7061,4.7051,4.7044,4.7061,4.7047,4.7058,4.7074,4.7074,4.7077,4.7079,4.7085,4.7088,4.7059,4.7059,4.7059,0,4.7192,4.7185,4.7168,4.7165,4.7159,4.7139,4.7139,4.7131,4.7113,4.7109,4.7102,4.7084,4.7072,4.7068,4.7072,4.7067,4.7066,4.706,4.7078,4.708,4.7082,4.7088,4.709,4.7061,4.706,4.706,4.706,0,4.7206,4.7202,4.7204,4.719,4.7184,4.7182,4.7164,4.716,4.7149,4.7137,4.7132,4.7117,4.7105,4.7103,4.7091,4.7098,4.7094,4.7082,4.7068,4.7087,4.7092,4.7094,4.7063,4.7062,4.7062,4.7061,0,0,4.724,4.7217,4.7218,4.7212,4.7195,4.719,4.7188,4.7178,4.7175,4.7164,4.7161,4.715,4.714,4.7132,4.7119,4.7119,4.7134,4.7108,4.7107,4.7114,4.7141,4.715,4.7153,4.7125,4.7125,4.7126,4.7142,0,4.7257,4.7253,4.7238,4.7238,4.7234,4.7215,4.7213,4.7202,4.7191,4.7185,4.7172,4.7165,4.7152,4.7147,4.7146,4.7133,4.7139,4.7131,4.7122,4.7122,4.7127,4.7155,4.7164,4.7181,4.7144,4.7144,4.7145,0,4.7275,4.7267,4.7268,4.7252,4.7249,4.7248,4.7237,4.7232,4.7219,4.7211,4.7203,4.7189,4.7185,4.7172,4.7167,4.7161,4.7157,4.715,4.715,4.7148,4.7135,4.7155,4.7185,4.7188,4.7147,4.7147,4.7147,0,4.7301,4.729,4.7289,4.7284,4.7265,4.7264,4.7256,4.7243,4.7238,4.7228,4.7225,4.7214,4.7209,4.7201,4.7184,4.7176,4.7181,4.7166,4.7174,4.7174,4.7175,4.7175,4.7206,4.7172,4.7172,4.7172,4.7172,0,4.7321,4.7322,4.73,4.73,4.73,4.7282,4.7283,4.7273,4.7262,4.7258,4.724,4.7238,4.7216,4.721,4.7197,4.7194,4.7192,4.7185,4.7181,4.7187,4.7188,4.7183,4.7182,4.7172,4.7172,4.7172,4.7172,0,4.735,4.7335,4.7333,4.7315,4.7311,4.7312,4.7297,4.7296,4.7284,4.728,4.7278,4.7259,4.7252,4.7234,4.7222,4.7213,4.7214,4.7207,4.7219,4.7217,4.7225,4.7225,4.7254,4.7258,4.7221,4.7222,4.7222,0,4.7364,4.7364,4.7348,4.7345,4.7338,4.7333,4.7328,4.7311,4.7306,4.7292,4.7292,4.7284,4.7276,4.7265,4.725,4.7241,4.7234,4.7245,4.7232,4.7238,4.7235,4.7235,4.7235,4.7248,4.7248,4.7249,4.7249,0,4.7391,4.7384,4.7378,4.737,4.7365,4.7357,4.7349,4.7347,4.7327,4.7323,4.7316,4.731,4.7299,4.729,4.7279,4.7269,4.7256,4.7253,4.7254,4.726,4.7267,4.7264,4.7227,4.7252,4.7252,4.7252,4.7252,4.7251,4.7412,4.7413,4.7401,4.7395,4.7387,4.738,4.7378,4.7367,4.7361,4.7351,4.734,4.7335,4.7322,4.7305,4.7297,4.7292,4.7285,4.7287,4.7287,4.7288,4.7291,4.7268,4.729,4.7289,4.7289,4.7289,4.7289,0,4.7439,4.7431,4.7426,4.7415,4.7411,4.7399,4.7389,4.7386,4.7382,4.7372,4.7365,4.7357,4.735,4.7334,4.7325,4.7324,4.7317,4.7322,4.7322,4.732,4.7297,4.7297,4.7327,4.7327,4.7327,4.7327,4.7327,4.7327,4.7452,4.7452,4.7443,4.7439,4.743,4.7426,4.7421,4.7414,4.7406,4.7399,4.7393,4.7383,4.7371,4.7361,4.7353,4.7349,4.7346,4.7353,4.7347,4.7325,4.7322,4.7318,4.7318,4.7353,4.7353,4.737,4.7371,4.7371]}]]